| time (UTC) | temp F | wind direction | speed MPH | gust MPH | rain 1hr in | rain 24hr in | rain mn in | humidity % | barometer mb |
| 20260504025457 | 67 | 227 | 7.0 | 13.0 | 0.00 | 0.00 | 0.00 | 34 | 1011.4 |
| 20260504024726 | 67 | 212 | 8.0 | 13.0 | 0.00 | 0.00 | 0.00 | 34 | 1011.4 |
| 20260504024224 | 67 | 226 | 8.0 | 11.0 | 0.00 | 0.00 | 0.00 | 32 | 1011.3 |
| 20260504023724 | 67 | 212 | 7.0 | 11.0 | 0.00 | 0.00 | 0.00 | 31 | 1011.4 |
| 20260504023222 | 68 | 197 | 7.0 | 13.0 | 0.00 | 0.00 | 0.00 | 31 | 1011.3 |
| 20260504022951 | 69 | 214 | 8.0 | 13.0 | 0.00 | 0.00 | 0.00 | 30 | 1011.2 |
| 20260504022220 | 69 | 209 | 8.0 | 12.0 | 0.00 | 0.00 | 0.00 | 30 | 1011.2 |
| 20260504021720 | 69 | 208 | 7.0 | 12.0 | 0.00 | 0.00 | 0.00 | 30 | 1011.1 |
| 20260504021219 | 70 | 181 | 7.0 | 12.0 | 0.00 | 0.00 | 0.00 | 30 | 1011.1 |
| 20260504020720 | 70 | 214 | 7.0 | 12.0 | 0.00 | 0.00 | 0.00 | 31 | 1011.0 |
| 20260504020218 | 70 | 195 | 8.0 | 12.0 | 0.00 | 0.00 | 0.00 | 30 | 1011.0 |
| 20260504015718 | 71 | 195 | 9.0 | 16.0 | 0.00 | 0.00 | 0.00 | 30 | 1011.1 |
| 20260504015218 | 71 | 198 | 9.0 | 16.0 | 0.00 | 0.00 | 0.00 | 29 | 1011.0 |
| 20260504014717 | 72 | 212 | 8.0 | 16.0 | 0.00 | 0.00 | 0.00 | 30 | 1010.9 |
| 20260504014218 | 72 | 216 | 7.0 | 16.0 | 0.00 | 0.00 | 0.00 | 30 | 1010.9 |
| 20260504013718 | 73 | 200 | 6.0 | 11.0 | 0.00 | 0.00 | 0.00 | 30 | 1011.0 |
| 20260504013217 | 73 | 211 | 7.0 | 13.0 | 0.00 | 0.00 | 0.00 | 28 | 1011.0 |
| 20260504012946 | 73 | 264 | 8.0 | 13.0 | 0.00 | 0.00 | 0.00 | 27 | 1011.0 |
| 20260504012212 | 73 | 224 | 9.0 | 17.0 | 0.00 | 0.00 | 0.00 | 26 | 1011.0 |
| 20260504011712 | 74 | 204 | 11.0 | 21.0 | 0.00 | 0.00 | 0.00 | 27 | 1010.9 |
| 20260504011212 | 74 | 243 | 11.0 | 21.0 | 0.00 | 0.00 | 0.00 | 26 | 1011.0 |
| 20260504010711 | 74 | 230 | 11.0 | 19.0 | 0.00 | 0.00 | 0.00 | 26 | 1011.0 |
| 20260504010215 | 75 | 221 | 10.0 | 19.0 | 0.00 | 0.00 | 0.00 | 25 | 1011.1 |
| 20260504010210 | 74 | 253 | 11.0 | 19.0 | 0.00 | 0.00 | 0.00 | 25 | 1011.1 |
| 20260504005207 | 75 | 250 | 11.0 | 20.0 | 0.00 | 0.00 | 0.00 | 25 | 1011.2 |
| 20260504004708 | 75 | 162 | 10.0 | 20.0 | 0.00 | 0.00 | 0.00 | 28 | 1011.2 |
| 20260504004206 | 75 | 186 | 10.0 | 19.0 | 0.00 | 0.00 | 0.00 | 25 | 1011.3 |
| 20260504003705 | 75 | 202 | 11.0 | 19.0 | 0.00 | 0.00 | 0.00 | 24 | 1011.4 |
| 20260504003207 | 76 | 240 | 11.0 | 19.0 | 0.00 | 0.00 | 0.00 | 25 | 1011.4 |
| 20260504002704 | 76 | 233 | 11.0 | 19.0 | 0.00 | 0.00 | 0.00 | 25 | 1011.5 |
| 20260504002203 | 76 | 230 | 10.0 | 18.0 | 0.00 | 0.00 | 0.00 | 25 | 1011.5 |
| 20260504001704 | 76 | 188 | 12.0 | 19.0 | 0.00 | 0.00 | 0.00 | 27 | 1011.6 |
| 20260504001202 | 75 | 207 | 13.0 | 25.0 | 0.00 | 0.00 | 0.00 | 27 | 1011.5 |
| 20260504000702 | 76 | 200 | 12.0 | 25.0 | 0.00 | 0.00 | 0.00 | 24 | 1011.5 |
| 20260504000201 | 76 | 276 | 10.0 | 21.0 | 0.00 | 0.00 | 0.00 | 25 | 1011.6 |
| 20260503235702 | 76 | 252 | 12.0 | 24.0 | 0.00 | 0.00 | 0.00 | 27 | 1011.6 |
| 20260503235200 | 76 | 218 | 12.0 | 24.0 | 0.00 | 0.00 | 0.00 | 25 | 1011.7 |
| 20260503234930 | 76 | 266 | 13.0 | 29.0 | 0.00 | 0.00 | 0.00 | 25 | 1011.6 |
| 20260503234200 | 76 | 243 | 12.0 | 29.0 | 0.00 | 0.00 | 0.00 | 24 | 1011.8 |
| 20260503233700 | 76 | 166 | 11.0 | 21.0 | 0.00 | 0.00 | 0.00 | 26 | 1011.7 |
| 20260503233430 | 76 | 226 | 12.0 | 21.0 | 0.00 | 0.00 | 0.00 | 25 | 1011.8 |
| 20260503232658 | 76 | 198 | 12.0 | 24.0 | 0.00 | 0.00 | 0.00 | 25 | 1011.9 |
| 20260503232156 | 76 | 250 | 12.0 | 24.0 | 0.00 | 0.00 | 0.00 | 25 | 1012.0 |
| 20260503231655 | 76 | 232 | 12.0 | 25.0 | 0.00 | 0.00 | 0.00 | 24 | 1012.0 |
| 20260503231154 | 76 | 236 | 12.0 | 25.0 | 0.00 | 0.00 | 0.00 | 23 | 1011.9 |
| 20260503230925 | 77 | 260 | 12.0 | 20.0 | 0.00 | 0.00 | 0.00 | 23 | 1011.9 |
| 20260503230151 | 77 | 212 | 12.0 | 22.0 | 0.00 | 0.00 | 0.00 | 23 | 1012.0 |
| 20260503225653 | 77 | 265 | 11.0 | 22.0 | 0.00 | 0.00 | 0.00 | 22 | 1011.9 |
| 20260503225152 | 77 | 217 | 11.0 | 19.0 | 0.00 | 0.00 | 0.00 | 24 | 1012.0 |
| 20260503224650 | 77 | 212 | 12.0 | 23.0 | 0.00 | 0.00 | 0.00 | 22 | 1012.0 |
| 20260503224149 | 77 | 49 | 14.0 | 23.0 | 0.00 | 0.00 | 0.00 | 22 | 1012.0 |
| 20260503223650 | 78 | 207 | 15.0 | 22.0 | 0.00 | 0.00 | 0.00 | 23 | 1012.1 |
| 20260503223152 | 77 | 239 | 12.0 | 22.0 | 0.00 | 0.00 | 0.00 | 22 | 1012.2 |
| 20260503223147 | 77 | 207 | 14.0 | 21.0 | 0.00 | 0.00 | 0.00 | 22 | 1012.2 |
| 20260503222148 | 78 | 205 | 12.0 | 22.0 | 0.00 | 0.00 | 0.00 | 24 | 1012.3 |
| 20260503221648 | 78 | 234 | 13.0 | 21.0 | 0.00 | 0.00 | 0.00 | 25 | 1012.3 |
| 20260503221145 | 78 | 262 | 13.0 | 20.0 | 0.00 | 0.00 | 0.00 | 24 | 1012.4 |
| 20260503220646 | 78 | 178 | 13.0 | 21.0 | 0.00 | 0.00 | 0.00 | 22 | 1012.5 |
| 20260503220143 | 77 | 253 | 11.0 | 21.0 | 0.00 | 0.00 | 0.00 | 21 | 1012.7 |
| 20260503215643 | 77 | 251 | 10.0 | 19.0 | 0.00 | 0.00 | 0.00 | 22 | 1012.6 |
| 20260503215144 | 77 | 236 | 11.0 | 19.0 | 0.00 | 0.00 | 0.00 | 20 | 1012.8 |
| 20260503214643 | 78 | 278 | 11.0 | 19.0 | 0.00 | 0.00 | 0.00 | 19 | 1012.9 |
| 20260503214143 | 78 | 224 | 12.0 | 21.0 | 0.00 | 0.00 | 0.00 | 22 | 1013.0 |
| 20260503213916 | 77 | 229 | 13.0 | 21.0 | 0.00 | 0.00 | 0.00 | 23 | 1013.0 |
| 20260503213143 | 78 | 231 | 11.0 | 21.0 | 0.00 | 0.00 | 0.00 | 22 | 1013.2 |
| 20260503212641 | 77 | 214 | 14.0 | 27.0 | 0.00 | 0.00 | 0.00 | 22 | 1013.2 |
| 20260503212138 | 77 | 272 | 13.0 | 27.0 | 0.00 | 0.00 | 0.00 | 22 | 1013.4 |
| 20260503211637 | 77 | 216 | 11.0 | 18.0 | 0.00 | 0.00 | 0.00 | 23 | 1013.5 |
| 20260503211138 | 77 | 244 | 13.0 | 25.0 | 0.00 | 0.00 | 0.00 | 20 | 1013.8 |
| 20260503210638 | 76 | 229 | 12.0 | 25.0 | 0.00 | 0.00 | 0.00 | 22 | 1013.9 |
| 20260503210138 | 77 | 262 | 12.0 | 21.0 | 0.00 | 0.00 | 0.00 | 23 | 1014.1 |
| 20260503205637 | 76 | 241 | 14.0 | 21.0 | 0.00 | 0.00 | 0.00 | 22 | 1014.2 |
| 20260503205137 | 76 | 230 | 13.0 | 22.0 | 0.00 | 0.00 | 0.00 | 21 | 1014.2 |
| 20260503204638 | 75 | 242 | 13.0 | 23.0 | 0.00 | 0.00 | 0.00 | 27 | 1014.4 |
| 20260503204139 | 75 | 258 | 14.0 | 25.0 | 0.00 | 0.00 | 0.00 | 25 | 1014.7 |
| 20260503204135 | 75 | 209 | 13.0 | 23.0 | 0.00 | 0.00 | 0.00 | 24 | 1014.6 |
| 20260503203135 | 75 | 276 | 12.0 | 29.0 | 0.00 | 0.00 | 0.00 | 25 | 1014.9 |
| 20260503202904 | 76 | 198 | 10.0 | 29.0 | 0.00 | 0.00 | 0.00 | 24 | 1014.8 |
| 20260503202131 | 76 | 267 | 11.0 | 22.0 | 0.00 | 0.00 | 0.00 | 24 | 1015.2 |
| 20260503201631 | 76 | 216 | 13.0 | 22.0 | 0.00 | 0.00 | 0.00 | 25 | 1015.2 |
| 20260503201129 | 75 | 210 | 13.0 | 22.0 | 0.00 | 0.00 | 0.00 | 25 | 1015.4 |
| 20260503200630 | 75 | 158 | 12.0 | 23.0 | 0.00 | 0.00 | 0.00 | 24 | 1015.5 |
| 20260503200128 | 75 | 285 | 13.0 | 26.0 | 0.00 | 0.00 | 0.00 | 26 | 1015.6 |
| 20260503195627 | 75 | 232 | 13.0 | 26.0 | 0.00 | 0.00 | 0.00 | 26 | 1015.7 |
| 20260503195125 | 75 | 232 | 10.0 | 23.0 | 0.00 | 0.00 | 0.00 | 25 | 1015.8 |
| 20260503194627 | 75 | 230 | 11.0 | 26.0 | 0.00 | 0.00 | 0.00 | 26 | 1015.8 |
| 20260503194354 | 75 | 238 | 11.0 | 26.0 | 0.00 | 0.00 | 0.00 | 27 | 1015.9 |
| 20260503193623 | 74 | 236 | 12.0 | 26.0 | 0.00 | 0.00 | 0.00 | 26 | 1015.9 |
| 20260503193124 | 74 | 240 | 13.0 | 26.0 | 0.00 | 0.00 | 0.00 | 26 | 1016.1 |
| 20260503192623 | 75 | 277 | 12.0 | 27.0 | 0.00 | 0.00 | 0.00 | 26 | 1016.1 |
| 20260503192121 | 74 | 163 | 12.0 | 27.0 | 0.00 | 0.00 | 0.00 | 28 | 1016.1 |
| 20260503191621 | 74 | 195 | 12.0 | 24.0 | 0.00 | 0.00 | 0.00 | 27 | 1016.2 |
| 20260503191121 | 74 | 251 | 14.0 | 24.0 | 0.00 | 0.00 | 0.00 | 27 | 1016.2 |
| 20260503190620 | 74 | 203 | 14.0 | 24.0 | 0.00 | 0.00 | 0.00 | 27 | 1016.3 |
| 20260503190350 | 74 | 198 | 13.0 | 22.0 | 0.00 | 0.00 | 0.00 | 27 | 1016.5 |
| 20260503185619 | 73 | 198 | 13.0 | 22.0 | 0.00 | 0.00 | 0.00 | 28 | 1016.5 |
| 20260503185117 | 73 | 207 | 11.0 | 21.0 | 0.00 | 0.00 | 0.00 | 28 | 1016.7 |
| 20260503184849 | 73 | 199 | 11.0 | 21.0 | 0.00 | 0.00 | 0.00 | 29 | 1016.8 |
| 20260503184348 | 72 | 223 | 11.0 | 21.0 | 0.00 | 0.00 | 0.00 | 30 | 1016.9 |
| 20260503183617 | 72 | 212 | 11.0 | 20.0 | 0.00 | 0.00 | 0.00 | 29 | 1017.1 |
| 20260503183115 | 72 | 215 | 12.0 | 21.0 | 0.00 | 0.00 | 0.00 | 29 | 1017.1 |
| 20260503182616 | 72 | 266 | 13.0 | 21.0 | 0.00 | 0.00 | 0.00 | 28 | 1017.3 |
| 20260503182115 | 72 | 217 | 11.0 | 21.0 | 0.00 | 0.00 | 0.00 | 30 | 1017.4 |
| 20260503181614 | 72 | 259 | 10.0 | 19.0 | 0.00 | 0.00 | 0.00 | 29 | 1017.5 |
| 20260503181117 | 72 | 245 | 12.0 | 23.0 | 0.00 | 0.00 | 0.00 | 31 | 1017.8 |
| 20260503181113 | 72 | 258 | 10.0 | 19.0 | 0.00 | 0.00 | 0.00 | 29 | 1017.6 |
| 20260503180112 | 71 | 168 | 13.0 | 23.0 | 0.00 | 0.00 | 0.00 | 32 | 1017.9 |
| 20260503175611 | 71 | 223 | 10.0 | 20.0 | 0.00 | 0.00 | 0.00 | 32 | 1017.8 |
| 20260503175111 | 71 | 266 | 9.0 | 22.0 | 0.00 | 0.00 | 0.00 | 32 | 1017.9 |
| 20260503174611 | 71 | 247 | 9.0 | 22.0 | 0.00 | 0.00 | 0.00 | 31 | 1018.1 |
| 20260503174109 | 70 | 267 | 10.0 | 20.0 | 0.00 | 0.00 | 0.00 | 31 | 1018.4 |
| 20260503173607 | 71 | 193 | 12.0 | 20.0 | 0.00 | 0.00 | 0.00 | 32 | 1018.4 |
| 20260503173339 | 70 | 198 | 12.0 | 22.0 | 0.00 | 0.00 | 0.00 | 34 | 1018.4 |
| 20260503172607 | 70 | 205 | 11.0 | 22.0 | 0.00 | 0.00 | 0.00 | 34 | 1018.6 |
| 20260503172107 | 70 | 243 | 12.0 | 21.0 | 0.00 | 0.00 | 0.00 | 35 | 1018.7 |
| 20260503171605 | 70 | 233 | 13.0 | 21.0 | 0.00 | 0.00 | 0.00 | 31 | 1018.8 |
| 20260503171110 | 69 | 208 | 13.0 | 24.0 | 0.00 | 0.00 | 0.00 | 35 | 1018.9 |
| 20260503171106 | 69 | 202 | 13.0 | 24.0 | 0.00 | 0.00 | 0.00 | 35 | 1018.9 |
| 20260503170105 | 69 | 191 | 12.0 | 21.0 | 0.00 | 0.00 | 0.00 | 34 | 1019.0 |
| 20260503150544 | 62 | 277 | 14.0 | 23.0 | 0.00 | 0.00 | 0.00 | 49 | 1020.5 |
| 20260503140303 | 57 | 285 | 10.0 | 17.0 | 0.00 | 0.00 | 0.00 | 60 | 1021.4 |
| 20260503130958 | 51 | 239 | 4.0 | 8.0 | 0.00 | 0.00 | 0.00 | 67 | 1021.2 |
| 20260503130457 | 50 | 240 | 4.0 | 8.0 | 0.00 | 0.00 | 0.00 | 68 | 1021.1 |
| 20260503110439 | 50 | 240 | 5.0 | 10.0 | 0.00 | 0.00 | 0.00 | 69 | 1020.6 |
| 20260503090418 | 51 | 242 | 6.0 | 13.0 | 0.00 | 0.00 | 0.00 | 66 | 1021.2 |
| 20260503080910 | 51 | 258 | 5.0 | 10.0 | 0.00 | 0.00 | 0.00 | 61 | 1021.4 |
| 20260503080410 | 51 | 244 | 5.0 | 10.0 | 0.00 | 0.00 | 0.00 | 61 | 1021.4 |
| 20260503072907 | 53 | 245 | 7.0 | 13.0 | 0.00 | 0.00 | 0.00 | 57 | 1021.6 |
| 20260503072404 | 53 | 245 | 7.0 | 13.0 | 0.00 | 0.00 | 0.00 | 56 | 1021.7 |
| 20260503071900 | 53 | 222 | 6.0 | 12.0 | 0.00 | 0.00 | 0.00 | 56 | 1021.7 |
| 20260503071632 | 53 | 236 | 6.0 | 12.0 | 0.00 | 0.00 | 0.00 | 55 | 1021.7 |
| 20260503070857 | 53 | 283 | 6.0 | 11.0 | 0.00 | 0.00 | 0.00 | 54 | 1021.8 |
| 20260503070354 | 53 | 263 | 7.0 | 13.0 | 0.00 | 0.00 | 0.00 | 53 | 1021.8 |
| 20260503054842 | 57 | 255 | 8.0 | 16.0 | 0.00 | 0.00 | 0.00 | 43 | 1021.9 |
| 20260503054342 | 57 | 225 | 7.0 | 14.0 | 0.00 | 0.00 | 0.00 | 43 | 1021.9 |
| 20260503053843 | 57 | 267 | 5.0 | 10.0 | 0.00 | 0.00 | 0.00 | 42 | 1021.8 |
| 20260503053342 | 57 | 229 | 5.0 | 10.0 | 0.00 | 0.00 | 0.00 | 41 | 1021.9 |
| 20260503052840 | 57 | 221 | 6.0 | 11.0 | 0.00 | 0.00 | 0.00 | 40 | 1021.9 |
| 20260503052612 | 57 | 247 | 6.0 | 11.0 | 0.00 | 0.00 | 0.00 | 40 | 1021.8 |
| 20260503051837 | 58 | 251 | 7.0 | 11.0 | 0.00 | 0.00 | 0.00 | 40 | 1021.9 |
| 20260503051339 | 58 | 241 | 7.0 | 11.0 | 0.00 | 0.00 | 0.00 | 39 | 1021.8 |
| 20260503051109 | 58 | 248 | 6.0 | 11.0 | 0.00 | 0.00 | 0.00 | 39 | 1021.9 |
| 20260503050944 | 57 | 263 | 5.0 | 11.0 | 0.00 | 0.00 | 0.00 | 40 | 1021.9 |
| 20260503045838 | 57 | 265 | 4.0 | 8.0 | 0.00 | 0.00 | 0.00 | 40 | 1022.0 |
| 20260503045338 | 57 | 245 | 4.0 | 8.0 | 0.00 | 0.00 | 0.00 | 40 | 1021.9 |
| 20260503044838 | 59 | 191 | 6.0 | 10.0 | 0.00 | 0.00 | 0.00 | 36 | 1021.9 |
| 20260503044609 | 60 | 236 | 6.0 | 10.0 | 0.00 | 0.00 | 0.00 | 37 | 1021.8 |
| 20260503043838 | 60 | 248 | 6.0 | 10.0 | 0.00 | 0.00 | 0.00 | 37 | 1021.9 |
| 20260503043336 | 60 | 250 | 6.0 | 10.0 | 0.00 | 0.00 | 0.00 | 36 | 1021.8 |
| 20260503042836 | 60 | 228 | 5.0 | 9.0 | 0.00 | 0.00 | 0.00 | 36 | 1021.9 |
| 20260503042332 | 60 | 255 | 6.0 | 10.0 | 0.00 | 0.00 | 0.00 | 36 | 1021.8 |
| 20260503041832 | 60 | 243 | 5.0 | 10.0 | 0.00 | 0.00 | 0.00 | 36 | 1021.8 |
| 20260503041331 | 60 | 257 | 6.0 | 9.0 | 0.00 | 0.00 | 0.00 | 35 | 1021.9 |
| 20260503040830 | 60 | 245 | 7.0 | 12.0 | 0.00 | 0.00 | 0.00 | 35 | 1022.0 |
| 20260503040330 | 60 | 286 | 7.0 | 13.0 | 0.00 | 0.00 | 0.00 | 35 | 1022.0 |
| 20260503035832 | 60 | 236 | 7.0 | 13.0 | 0.00 | 0.00 | 0.00 | 35 | 1022.1 |
| 20260503035330 | 60 | 219 | 6.0 | 11.0 | 0.00 | 0.00 | 0.00 | 35 | 1022.1 |
| 20260503034829 | 60 | 250 | 6.0 | 11.0 | 0.00 | 0.00 | 0.00 | 35 | 1022.0 |
| 20260503034329 | 61 | 245 | 6.0 | 11.0 | 0.00 | 0.00 | 0.00 | 34 | 1022.0 |
| 20260503033826 | 61 | 229 | 6.0 | 10.0 | 0.00 | 0.00 | 0.00 | 34 | 1022.0 |
| 20260503033326 | 61 | 247 | 6.0 | 10.0 | 0.00 | 0.00 | 0.00 | 33 | 1022.1 |
| 20260503032824 | 61 | 238 | 5.0 | 10.0 | 0.00 | 0.00 | 0.00 | 32 | 1021.9 |
| 20260503032324 | 62 | 242 | 5.0 | 9.0 | 0.00 | 0.00 | 0.00 | 32 | 1021.8 |
| 20260503031824 | 62 | 228 | 5.0 | 11.0 | 0.00 | 0.00 | 0.00 | 32 | 1021.8 |
| 20260503031555 | 62 | 234 | 5.0 | 11.0 | 0.00 | 0.00 | 0.00 | 33 | 1021.8 |
| 20260503030824 | 63 | 220 | 4.0 | 9.0 | 0.00 | 0.00 | 0.00 | 33 | 1021.8 |
| 20260503030325 | 63 | 205 | 4.0 | 7.0 | 0.00 | 0.00 | 0.00 | 33 | 1021.8 |
| 20260503025824 | 63 | 223 | 4.0 | 7.0 | 0.00 | 0.00 | 0.00 | 30 | 1021.8 |